Location: Frydek-Mistek
(49.6830°N, 18.3330°E)
Time: 14:21:21
(UTC+02:00)

Courier 1B Rocket - All Passes

Search period start: 28 July 2014 00:00
Search period end: 07 August 2014 00:00
Orbit: 920 x 1202 km, 28.3° (Epoch: 26 July)

Date Brightness Start Highest point End Pass type
(mag) Time Alt. Az. Time Alt. Az. Time Alt. Az.
28 Jul - 15:28:09 10° S 15:29:06 10° SSE 15:30:03 10° SSE daylight
28 Jul - 17:17:46 10° SSW 17:21:13 14° S 17:24:37 10° SSE daylight
29 Jul - 16:17:10 10° SSW 16:20:33 13° S 16:23:55 10° SSE daylight
29 Jul - 18:10:02 10° SSW 18:12:41 12° S 18:15:18 10° S daylight
30 Jul - 15:17:03 10° SSW 15:19:54 12° S 15:22:44 10° SSE daylight
30 Jul - 17:08:38 10° SSW 17:12:03 13° S 17:15:25 10° SSE daylight
31 Jul - 14:17:59 10° S 14:19:15 10° SSE 14:20:32 10° SSE daylight
31 Jul - 16:07:44 10° SSW 16:11:23 14° S 16:15:00 10° SSE daylight
31 Jul - 18:02:18 10° SSW 18:03:29 10° SSW 18:04:40 10° S daylight
01 Aug - 15:07:14 10° SSW 15:10:42 14° S 15:14:11 10° SSE daylight
01 Aug - 16:59:58 10° SSW 17:02:51 12° S 17:05:44 10° SSE daylight
02 Aug - 14:07:14 10° S 14:10:03 12° S 14:12:53 10° SSE daylight
02 Aug - 15:58:42 10° SSW 16:02:12 14° S 16:05:41 10° SSE daylight
03 Aug - 13:08:31 10° S 13:09:25 10° SSE 13:10:20 10° SSE daylight
03 Aug - 14:57:55 10° SSW 15:01:31 14° S 15:05:09 10° SSE daylight
03 Aug - 16:52:14 10° SSW 16:53:39 11° SSW 16:55:03 10° S daylight
04 Aug - 13:57:32 10° SSW 14:00:51 13° S 14:04:13 10° SSE daylight
04 Aug - 15:50:09 10° SSW 15:53:00 12° S 15:55:52 10° SSE daylight
05 Aug - 12:57:43 10° S 13:00:13 12° S 13:02:46 10° SSE daylight
05 Aug - 14:49:00 10° SSW 14:52:20 13° S 14:55:43 10° SSE daylight
06 Aug - 13:48:20 10° SSW 13:51:41 13° S 13:55:05 10° SSE daylight
06 Aug - 15:42:47 10° SSW 15:43:48 10° SSW 15:44:48 10° S daylight
